Temperature
27 26 26 25 28 30 30 31 31 31 31 30 30 29 28 27 26 24 24 23 21 21 21 21 20 20 20 19 19 19 19 19 19 19 18 18 18 18 18 18 18 18 18 18 18 18 18 18 18
27 26 27 29 29 30 30 31 31 31 31 30 29 28 27 26 25 24 23 22 21 21 21 21 20 20 20 19 19 19 19 19 19 19 18 18 18 18 18 18 18 18 18 18 18 18 18 18 18
27 27 29 31 31 31 31 32 32 32 31 30 29 28 27 26 25 24 23 22 21 20 20 21 20 20 20 19 19 19 19 19 19 18 18 18 18 18 18 18 18 18 18 18 18 18 18 18 18
27 30 30 32 32 32 32 32 32 32 31 30 29 28 26 26 25 24 23 23 21 20 21 21 20 20 20 19 19 19 19 19 19 18 18 18 18 18 18 18 18 18 18 18 18 18 18 18 18
29 31 31 31 32 33 33 32 31 32 31 30 28 27 25 25 24 24 23 23 22 20 21 21 20 20 19 19 19 19 19 19 18 18 18 18 18 18 18 18 18 18 18 18 18 18 18 18 18
31 32 31 32 32 33 33 32 32 31 31 30 28 27 25 24 24 24 24 23 22 21 21 21 20 20 19 19 19 19 19 19 18 18 18 18 18 18 18 18 18 18 18 18 18 18 18 18 18
32 32 32 33 33 33 33 32 32 32 31 30 29 27 25 25 24 24 24 23 22 21 21 21 20 20 19 19 19 19 19 19 18 18 18 18 18 18 18 18 18 18 18 18 18 18 18 18 18
33 33 33 33 33 33 34 33 31 31 30 30 29 28 25 24 24 24 23 23 22 21 20 20 20 20 19 19 19 19 19 19 19 18 18 18 18 18 18 18 18 18 18 18 18 18 18 18 18
34 33 33 33 33 33 34 32 31 30 30 29 29 28 25 24 24 24 23 23 22 21 20 20 19 19 19 19 19 19 19 19 18 18 18 18 18 18 18 18 18 18 18 18 18 18 18 18 18
34 33 34 34 35 34 33 32 31 29 28 28 27 26 25 24 24 24 23 23 22 21 21 20 20 19 19 18 19 19 18 18 18 18 18 18 17 17 18 18 18 18 18 18 18 18 18 18 18
35 34 35 35 35 34 34 33 31 30 29 29 27 25 24 24 24 24 23 23 22 21 21 20 20 20 19 19 19 18 18 18 18 18 18 18 18 18 18 18 18 18 18 18 18 18 17 17 18
35 35 35 35 34 34 34 33 32 32 31 30 28 26 25 24 24 24 23 23 22 21 21 21 20 20 20 19 19 18 18 18 18 18 18 18 18 18 18 18 18 18 18 18 18 18 17 17 18
35 35 35 35 34 34 33 33 32 32 31 29 28 26 25 25 24 24 23 23 22 21 21 20 20 20 19 19 19 19 18 18 18 18 18 18 18 18 18 18 18 18 18 18 18 17 17 18 18
35 35 35 35 34 33 33 32 32 31 31 29 28 27 26 25 25 24 23 22 22 21 20 20 20 19 19 19 19 19 19 19 19 18 18 18 18 18 18 18 18 18 18 18 18 18 18 18 18
34 34 35 35 35 34 33 31 32 31 31 30 28 27 26 25 25 24 23 22 22 21 20 20 19 19 19 19 19 19 19 19 19 18 18 18 18 18 18 18 18 18 18 18 18 18 18 18 18
34 34 33 35 35 34 33 30 32 32 31 30 29 28 26 25 25 24 23 22 21 21 20 20 19 19 19 19 19 19 19 19 19 19 18 18 18 18 18 18 18 18 18 18 18 18 18 18 18
34 33 33 35 35 35 33 31 32 32 32 30 29 28 26 25 25 24 23 22 21 21 20 20 20 19 19 19 19 19 19 19 19 18 18 18 18 18 18 18 18 18 18 18 18 18 18 18 18
33 34 34 34 35 35 34 33 33 33 32 31 30 28 27 26 25 24 23 22 21 21 20 20 20 19 19 19 19 19 19 19 19 18 18 18 18 18 18 18 18 18 18 18 18 18 18 18 18
34 34 34 35 35 34 34 33 33 33 33 31 30 29 27 26 25 24 23 22 21 21 20 20 20 20 19 19 19 19 19 19 18 18 18 18 18 18 18 18 18 18 18 18 18 18 18 18 18
33 33 34 35 35 34 34 33 33 33 33 32 30 29 28 27 25 24 23 22 21 21 20 20 20 20 19 19 19 19 19 19 19 18 18 18 18 18 18 18 18 18 18 18 18 18 18 18 18
33 33 34 34 34 34 34 32 32 32 32 32 31 30 28 27 26 24 23 22 21 21 21 20 20 20 19 19 19 18 18 19 18 18 18 18 18 18 18 18 18 18 18 18 18 18 18 18 18
33 34 34 34 33 33 34 32 32 32 32 32 31 30 29 28 26 25 24 23 22 21 21 20 20 20 19 19 19 19 18 19 19 18 18 18 18 18 18 18 18 18 18 18 18 18 18 18 18
33 34 34 33 33 32 33 32 32 32 32 32 32 31 29 28 27 25 24 23 22 22 21 20 20 20 19 19 19 19 18 18 18 18 18 18 18 18 18 18 18 18 18 18 18 18 18 18 18
34 33 33 33 32 31 32 32 31 32 32 32 32 31 30 28 27 26 25 23 22 22 21 20 20 20 19 19 19 18 18 18 18 18 18 18 18 18 18 18 18 18 18 18 18 18 18 18 18
33 31 31 30 30 30 32 32 32 33 33 33 32 31 30 29 27 26 25 24 23 22 21 20 20 20 19 19 19 18 18 18 18 18 18 18 18 18 18 18 18 18 18 18 18 18 18 18 18
32 32 30 30 30 31 31 32 33 34 33 33 32 31 30 29 28 26 25 24 23 22 21 20 20 20 19 19 19 18 18 18 18 18 18 18 18 18 18 18 18 18 18 18 18 18 18 18 18
32 32 33 32 32 31 32 33 33 34 33 33 32 31 30 29 28 26 25 24 23 22 21 21 20 20 19 19 19 19 18 18 18 18 18 18 18 18 18 18 18 18 18 18 18 18 18 18 18
33 33 32 31 30 30 31 32 31 31 32 32 32 31 30 29 27 26 26 24 23 22 21 21 20 20 19 19 19 18 18 18 18 18 18 18 18 18 18 18 18 18 18 18 18 18 18 18 18
32 32 31 31 31 30 30 30 32 31 32 32 32 31 30 29 28 27 26 25 24 23 22 21 20 20 19 19 19 18 18 18 18 18 18 18 18 18 18 18 18 18 18 17 17 17 17 17 17
33 32 32 30 30 31 30 31 33 33 33 33 32 31 30 29 28 27 26 25 24 23 22 21 20 19 19 19 19 18 18 18 18 18 18 18 18 18 18 18 18 17 17 17 17 17 17 17 17
Wind_Speed
11 13 10 6 3 5 17 17 17 16 16 15 15 15 18 15 11 12 15 20 21 18 18 17 16 16 15 15 15 14 14 13 13 12 12 12 12 12 12 12 12 12 12 11 11 11 12 12 13
11 13 8 4 2 11 15 15 15 15 13 14 17 18 19 17 16 16 17 19 20 19 18 17 17 16 15 15 14 14 13 12 12 11 11 11 10 11 11 11 11 12 12 12 11 11 12 12 12
11 12 6 2 9 14 15 14 13 13 12 14 16 16 14 13 15 15 17 20 20 18 19 18 17 16 15 15 14 13 13 12 11 11 11 11 10 10 10 10 11 11 12 12 12 12 12 12 11
8 5 2 3 14 15 14 12 11 13 12 13 14 12 13 12 15 18 18 21 21 19 20 18 17 17 15 15 14 13 13 12 12 11 10 10 10 10 10 10 11 11 11 12 12 12 12 11 10
8 4 1 7 14 14 14 13 12 13 13 15 17 16 14 14 19 19 17 19 20 20 20 19 17 16 15 14 13 13 12 12 11 11 10 10 10 10 10 10 11 11 12 12 12 12 11 10 9
5 3 1 9 13 13 13 12 12 12 12 14 16 16 13 15 16 16 15 16 19 20 20 19 17 16 15 14 13 13 12 12 11 11 10 10 9 10 10 10 10 11 11 12 12 11 11 10 8
7 5 2 9 12 12 12 11 11 12 11 12 14 15 12 14 14 14 14 15 17 19 19 17 17 15 15 14 13 13 12 11 11 10 10 10 10 10 10 10 10 10 11 11 11 11 10 9 7
5 4 4 9 11 11 10 11 12 11 10 9 9 10 13 16 15 14 13 13 15 16 16 15 16 16 15 13 13 12 11 11 10 10 10 10 10 10 10 11 10 10 10 10 11 10 9 7 5
6 3 6 10 9 9 10 10 11 10 10 10 11 15 19 19 17 15 13 13 13 13 13 13 14 14 15 15 14 13 11 10 10 9 10 10 9 10 9 11 10 10 10 10 10 9 9 7 5
2 3 8 8 8 8 8 8 8 8 8 10 14 18 20 18 16 15 14 13 13 13 12 10 12 11 12 13 13 12 11 11 9 9 10 8 7 9 11 12 10 9 9 9 9 9 8 7 7
4 5 7 7 7 6 6 7 7 7 7 11 16 19 18 17 15 14 13 13 13 12 10 10 10 9 10 9 10 8 8 9 9 8 7 7 7 9 11 9 9 9 9 8 9 8 7 7 5
4 5 5 5 5 4 5 5 6 8 10 13 17 20 18 17 14 13 13 12 13 12 11 9 9 7 7 8 7 6 7 7 7 8 7 7 4 5 7 6 8 9 7 6 7 6 5 4 4
4 4 3 3 2 4 5 4 6 9 11 15 17 18 17 15 14 12 11 11 12 11 10 10 8 7 6 5 3 5 5 6 7 9 6 5 4 3 5 4 5 5 7 6 4 4 3 3 3
7 6 5 3 2 4 4 4 4 9 11 14 15 15 15 14 14 13 11 10 11 10 9 9 9 8 6 4 2 1 4 5 7 8 8 6 5 6 4 4 3 3 5 5 5 6 3 2 2
8 9 8 5 1 3 4 1 1 8 11 12 13 13 13 13 12 12 12 11 11 10 10 9 9 9 8 6 5 4 4 5 5 7 8 6 5 7 5 4 3 4 6 5 3 5 5 3 3
11 11 9 4 1 2 2 2 5 7 10 11 11 12 12 11 12 12 12 11 11 11 10 9 10 11 9 7 5 4 3 3 4 6 7 7 6 8 5 3 3 6 6 5 3 2 3 3 3
12 11 7 3 3 1 1 2 5 7 9 10 11 12 12 11 11 12 13 11 10 10 10 9 8 11 10 8 5 3 2 1 2 4 7 7 7 8 6 3 3 5 4 3 3 3 2 2 2
9 6 2 1 3 1 2 2 5 6 7 10 11 12 12 12 12 13 12 12 11 10 10 10 8 9 9 7 5 2 2 2 3 3 5 8 7 7 6 4 5 5 3 3 2 3 2 1 2
10 11 7 3 3 4 5 2 4 5 5 8 11 12 12 12 13 13 12 13 12 11 10 10 10 9 8 6 6 5 4 3 3 4 6 7 6 7 5 2 4 3 2 3 4 3 3 3 2
8 9 9 4 1 4 6 5 2 3 5 7 10 12 13 12 13 13 12 12 12 11 11 10 10 10 9 7 5 4 4 4 4 3 5 7 7 7 7 4 4 4 3 3 3 2 2 3 3
9 10 9 8 5 8 9 6 5 5 6 7 9 11 12 13 13 13 13 13 13 12 11 11 10 10 10 8 6 4 3 3 4 4 4 6 7 8 6 6 4 4 4 5 5 5 4 3 2
10 8 8 9 10 9 9 5 5 9 9 9 9 10 11 13 14 14 14 13 12 12 11 9 10 9 9 8 8 8 7 6 6 4 5 5 7 7 7 5 5 3 3 5 6 6 5 4 3
10 8 7 10 11 12 12 7 3 8 8 9 10 10 11 12 13 14 14 13 12 11 11 10 9 9 8 8 8 8 6 5 4 4 5 5 5 6 7 6 5 4 4 4 5 4 5 4 4
9 8 9 11 12 12 11 7 2 3 5 7 8 9 9 11 12 11 12 11 10 10 10 10 9 9 9 9 8 8 7 6 5 5 5 5 4 5 7 7 5 5 5 5 4 3 5 4 4
10 9 8 9 9 7 7 6 2 6 6 5 7 8 9 10 11 10 11 12 11 11 10 10 10 9 9 8 8 7 6 6 5 5 5 5 5 5 6 6 5 5 5 5 4 4 5 5 5
13 13 10 9 7 2 6 5 5 9 7 5 7 9 10 11 11 11 11 11 11 11 10 10 10 9 8 8 7 6 6 5 4 5 5 6 5 5 5 6 5 6 6 6 5 5 6 5 5
14 13 15 15 16 12 6 3 7 10 9 7 7 9 10 10 12 11 12 12 11 11 10 10 9 8 8 7 6 6 6 5 5 5 5 5 5 5 5 5 5 5 6 5 4 5 5 4 5
17 13 9 10 10 12 11 6 2 8 8 8 7 8 9 11 11 12 11 11 11 11 10 10 9 8 7 6 6 6 5 5 4 4 5 4 4 4 3 4 5 5 5 5 5 4 4 4 4
15 15 12 9 9 11 9 2 5 7 7 8 8 9 9 10 11 11 11 11 11 11 11 10 9 8 7 7 5 4 5 5 4 4 4 4 3 3 4 4 5 5 5 5 5 5 4 5 5
15 16 15 10 9 10 11 3 9 7 8 7 8 9 9 8 10 10 11 11 10 10 10 10 9 8 7 6 6 5 4 4 4 4 4 3 3 4 4 4 4 5 4 4 5 6 5 5 5
Wind_Direction
266 253 239 258 266 69 67 65 64 63 62 59 61 69 65 62 71 96 113 116 118 119 120 116 111 112 113 113 113 114 114 111 109 106 105 104 104 103 102 102 103 103 103 102 103 105 106 106 108
281 274 253 246 51 67 69 69 67 68 70 70 66 69 72 72 86 106 115 120 122 125 127 118 116 115 115 115 115 115 114 112 111 108 108 107 108 107 105 104 105 106 105 105 105 106 106 109 111
272 265 275 237 69 69 69 70 74 78 76 79 77 67 70 89 102 115 126 130 124 121 117 119 120 118 117 117 117 116 115 115 114 112 110 108 108 109 110 109 109 108 107 108 108 108 107 111 115
274 274 264 65 76 73 72 73 79 81 74 76 84 82 79 89 108 121 135 130 123 123 122 123 123 121 120 119 118 117 117 117 116 114 112 111 109 109 110 111 112 111 110 109 110 110 109 112 117
262 282 317 75 80 79 75 72 71 76 75 79 87 93 92 97 112 128 136 128 128 126 124 127 127 125 124 123 121 120 119 117 116 115 113 113 112 112 112 114 113 115 113 111 112 112 112 115 120
288 286 321 77 77 74 76 82 81 74 80 95 102 102 101 115 123 135 132 128 127 125 125 128 129 128 128 127 126 124 122 120 117 116 116 115 114 113 114 118 116 117 116 115 114 115 116 118 121
277 296 55 82 81 74 70 78 80 85 78 80 102 111 124 130 132 135 127 126 126 126 129 137 138 135 134 133 132 129 127 124 123 122 123 123 121 119 120 120 120 120 120 119 119 120 122 123 128
296 327 25 72 74 73 71 74 70 73 79 83 104 119 137 137 139 132 128 123 121 127 134 143 145 144 145 142 139 135 133 132 131 132 134 134 133 132 132 128 124 126 126 126 127 127 129 133 143
300 316 36 53 59 67 63 72 80 66 70 65 72 111 134 140 141 139 137 129 126 130 137 146 145 152 153 149 145 145 143 145 146 150 153 154 157 146 147 125 131 133 134 134 136 139 143 149 168
310 5 47 48 48 59 75 82 92 98 99 99 100 114 131 142 146 151 149 144 144 143 145 144 147 153 151 146 148 157 159 162 171 164 169 174 161 146 133 134 139 143 145 147 151 156 164 178 177
348 24 36 45 50 37 61 90 94 109 124 130 131 135 142 147 155 159 154 155 152 151 147 148 148 149 141 139 154 158 157 163 172 166 169 165 154 142 136 147 151 160 165 167 156 174 195 198 175
335 8 18 22 39 42 40 73 95 99 105 120 133 143 149 155 162 164 159 159 153 153 151 152 140 132 127 133 142 154 157 165 162 154 170 156 156 148 139 152 164 167 167 162 169 190 188 182 160
307 329 352 10 29 57 33 44 79 92 99 116 131 144 153 161 165 161 154 151 151 156 155 150 134 123 113 108 145 160 159 160 153 151 175 167 162 143 135 143 153 165 152 163 183 158 147 158 153
314 313 298 289 29 74 57 21 63 109 115 126 138 150 160 163 163 156 153 154 156 157 156 148 140 135 133 141 177 176 169 155 156 158 167 182 156 138 143 147 170 171 157 161 167 148 155 188 166
292 288 276 250 180 104 83 58 198 134 131 137 146 155 160 161 161 160 159 160 158 155 157 158 156 149 154 167 189 195 205 172 159 152 157 169 159 143 150 147 180 171 151 144 159 155 164 190 176
259 253 257 229 153 151 166 164 188 157 144 140 147 154 156 156 166 164 161 160 156 157 161 172 173 160 166 178 195 209 211 170 146 151 154 166 163 156 164 170 183 165 164 166 167 182 178 181 177
247 239 238 192 142 182 218 174 182 168 151 149 154 157 155 160 169 162 163 162 157 159 163 173 171 162 169 177 187 215 201 176 152 154 159 171 184 170 173 182 147 172 175 176 189 164 170 176 196
295 283 255 164 115 307 283 193 162 161 165 159 158 157 159 168 171 165 165 163 160 162 166 171 174 167 166 170 177 202 211 198 195 179 161 172 189 179 187 177 172 202 182 168 156 133 154 169 211
315 321 324 8 48 319 299 259 181 162 173 160 160 161 164 170 168 164 166 168 169 169 171 174 179 172 170 173 180 187 197 207 205 191 175 187 196 181 198 208 163 201 186 175 174 171 184 211 202
289 289 291 294 26 301 292 282 222 170 171 167 167 166 169 168 165 164 171 175 174 174 177 177 181 177 179 181 177 181 187 207 214 198 176 196 200 194 199 206 193 185 181 188 197 191 209 219 201
266 272 291 308 308 275 270 255 183 185 183 167 167 170 168 167 168 171 178 179 177 178 183 184 181 180 184 176 173 182 185 223 213 190 186 203 201 203 215 190 209 186 191 190 198 200 210 227 225
260 266 285 296 294 293 286 274 188 183 179 165 170 174 165 166 168 172 177 180 180 180 180 176 175 178 179 180 187 190 198 211 214 199 192 200 206 205 208 203 207 207 215 189 200 201 206 216 234
267 305 300 285 281 281 282 284 183 170 170 171 175 172 162 167 168 171 174 174 177 176 174 175 173 175 179 188 192 197 212 219 218 212 199 200 206 208 213 208 201 205 224 217 216 183 201 216 232
268 278 274 265 267 264 265 272 234 154 164 161 158 149 149 156 160 161 162 161 167 170 169 170 169 174 180 190 196 202 214 218 214 214 207 205 211 210 215 214 198 208 218 221 211 193 207 221 231
235 248 256 249 238 255 264 259 166 125 118 141 153 151 153 156 152 157 162 164 167 169 167 166 166 174 182 189 195 204 217 219 217 217 217 217 220 210 209 213 196 210 215 221 208 199 221 223 225
218 238 253 276 290 279 222 236 135 121 117 126 156 153 157 159 152 162 168 163 165 167 167 165 166 173 180 187 193 197 207 219 221 220 222 219 223 220 200 200 200 209 214 221 211 215 217 218 220
236 230 254 271 282 285 251 194 142 137 140 149 152 149 162 155 153 163 164 161 163 165 165 163 161 169 180 185 186 193 201 214 226 227 224 227 220 220 197 193 198 211 219 224 209 224 226 210 218
245 252 255 260 277 282 282 280 189 144 146 148 156 155 155 154 159 162 155 158 162 163 159 156 160 169 174 176 188 193 195 205 219 233 230 229 224 226 194 191 201 210 213 217 221 230 222 214 224
222 241 257 272 271 273 281 340 112 149 155 157 154 153 156 166 165 156 154 156 159 158 159 160 162 167 174 178 185 186 187 193 202 218 226 223 214 202 203 202 211 214 214 216 213 230 228 217 219
234 229 233 244 262 274 280 262 145 160 150 150 146 146 155 162 152 154 155 156 162 160 160 161 167 170 173 172 176 179 181 185 202 210 209 206 203 205 209 209 212 218 212 214 213 226 227 222 223
Height
1492 1491 1491 1493 1491 1489 1493 1489 1486 1488 1489 1492 1492 1495 1499 1503 1509 1521 1524 1525 1527 1530 1532 1535 1537 1539 1540 1542 1543 1545 1546 1548 1549 1550 1551 1552 1554 1555 1556 1556 1558 1558 1559 1560 1562 1563 1564 1565 1566
1492 1493 1495 1493 1492 1500 1498 1489 1490 1490 1492 1494 1496 1500 1503 1509 1514 1520 1524 1528 1530 1532 1534 1536 1538 1540 1542 1544 1545 1547 1548 1550 1551 1552 1553 1555 1556 1557 1557 1558 1559 1560 1561 1562 1563 1565 1565 1566 1567
1494 1494 1495 1488 1489 1497 1498 1489 1490 1491 1493 1495 1500 1505 1509 1514 1518 1522 1527 1530 1532 1534 1536 1538 1540 1542 1544 1546 1548 1549 1550 1552 1553 1554 1555 1556 1558 1558 1559 1560 1561 1562 1563 1564 1565 1566 1567 1568 1570
1497 1496 1493 1487 1491 1488 1488 1489 1490 1493 1495 1497 1501 1508 1515 1518 1521 1525 1529 1532 1534 1536 1538 1540 1542 1544 1546 1548 1549 1551 1552 1554 1555 1556 1557 1558 1559 1560 1561 1562 1563 1564 1565 1566 1567 1568 1569 1570 1572
1498 1495 1493 1492 1489 1485 1486 1490 1492 1494 1497 1501 1505 1512 1518 1522 1524 1527 1531 1533 1536 1538 1539 1542 1544 1546 1548 1549 1551 1552 1554 1555 1556 1558 1559 1560 1561 1562 1563 1564 1565 1566 1567 1568 1569 1570 1571 1572 1574
1497 1493 1497 1497 1491 1486 1487 1490 1494 1497 1499 1503 1507 1514 1521 1525 1527 1530 1533 1535 1537 1539 1541 1543 1545 1547 1549 1551 1553 1554 1555 1557 1558 1559 1560 1561 1562 1563 1564 1565 1567 1568 1569 1570 1571 1572 1573 1574 1576
1497 1491 1493 1491 1492 1490 1489 1491 1494 1496 1500 1504 1508 1515 1523 1527 1529 1531 1534 1537 1539 1541 1542 1544 1547 1549 1551 1552 1554 1555 1557 1558 1559 1560 1562 1563 1564 1565 1566 1567 1568 1569 1571 1572 1573 1574 1575 1576 1577
1492 1490 1491 1488 1492 1493 1490 1492 1496 1499 1503 1506 1508 1514 1522 1527 1530 1533 1536 1538 1540 1542 1544 1546 1548 1550 1552 1553 1555 1557 1558 1559 1561 1562 1563 1564 1566 1567 1568 1569 1570 1571 1572 1573 1574 1576 1577 1578 1579
1491 1493 1495 1491 1491 1491 1491 1495 1499 1502 1504 1508 1509 1513 1520 1526 1530 1533 1537 1540 1542 1544 1546 1548 1550 1551 1553 1555 1556 1558 1559 1561 1562 1563 1565 1566 1567 1568 1569 1570 1571 1573 1574 1575 1576 1577 1578 1580 1581
1489 1494 1491 1487 1487 1489 1492 1495 1499 1503 1508 1511 1514 1518 1522 1526 1530 1533 1536 1539 1542 1545 1547 1549 1551 1553 1555 1556 1557 1558 1560 1562 1563 1564 1566 1567 1569 1570 1571 1572 1573 1574 1575 1577 1578 1579 1580 1581 1583
1488 1489 1487 1487 1489 1490 1491 1495 1498 1502 1506 1509 1514 1519 1523 1527 1531 1534 1537 1539 1542 1545 1547 1550 1552 1554 1556 1557 1558 1560 1562 1563 1564 1566 1567 1569 1570 1571 1572 1573 1574 1575 1576 1578 1579 1580 1581 1583 1584
1489 1488 1489 1489 1491 1492 1493 1495 1498 1500 1504 1508 1513 1518 1523 1527 1530 1534 1536 1539 1542 1545 1547 1550 1552 1553 1556 1558 1559 1561 1562 1564 1565 1566 1568 1570 1571 1572 1573 1574 1575 1576 1577 1579 1580 1581 1582 1584 1585
1491 1490 1490 1490 1491 1492 1494 1495 1498 1501 1505 1509 1514 1519 1523 1527 1530 1533 1536 1539 1542 1544 1547 1549 1551 1553 1555 1557 1559 1561 1563 1564 1565 1566 1568 1569 1571 1573 1574 1575 1576 1577 1578 1579 1580 1582 1583 1584 1585
1492 1491 1490 1490 1490 1492 1495 1498 1499 1502 1506 1510 1515 1519 1523 1526 1529 1532 1535 1538 1541 1543 1546 1548 1549 1551 1554 1556 1558 1561 1563 1564 1566 1566 1568 1570 1571 1572 1574 1575 1576 1578 1579 1580 1581 1582 1583 1584 1585
1495 1494 1491 1487 1488 1491 1495 1501 1501 1503 1505 1510 1514 1519 1522 1525 1528 1531 1534 1537 1540 1542 1544 1546 1548 1550 1552 1555 1558 1560 1563 1564 1565 1566 1567 1569 1571 1572 1574 1575 1576 1578 1579 1580 1581 1582 1583 1584 1586
1494 1494 1497 1486 1487 1489 1496 1509 1500 1502 1504 1508 1513 1517 1521 1524 1527 1530 1533 1535 1538 1540 1543 1545 1548 1549 1551 1554 1556 1559 1562 1564 1565 1566 1567 1569 1570 1572 1573 1575 1576 1577 1579 1580 1581 1582 1583 1584 1585
1492 1496 1494 1487 1484 1486 1492 1501 1497 1499 1501 1506 1511 1515 1520 1523 1526 1529 1532 1534 1537 1539 1541 1543 1546 1547 1549 1552 1555 1557 1560 1562 1564 1565 1566 1568 1570 1571 1573 1574 1576 1577 1578 1580 1581 1582 1583 1584 1584
1496 1489 1488 1488 1483 1486 1490 1493 1492 1495 1498 1503 1508 1513 1518 1521 1524 1528 1530 1533 1535 1537 1539 1541 1544 1546 1548 1551 1553 1556 1558 1560 1562 1564 1565 1567 1569 1570 1572 1573 1575 1576 1578 1579 1580 1581 1582 1583 1584
1490 1491 1491 1486 1482 1488 1490 1491 1490 1492 1496 1500 1505 1510 1515 1519 1523 1527 1530 1532 1534 1536 1538 1539 1542 1544 1546 1549 1551 1553 1556 1558 1561 1562 1564 1565 1567 1568 1570 1572 1573 1575 1577 1578 1579 1580 1581 1582 1583
1494 1497 1493 1486 1483 1488 1491 1491 1489 1491 1494 1498 1502 1507 1512 1517 1522 1525 1528 1531 1532 1534 1536 1538 1540 1542 1544 1546 1549 1551 1554 1556 1558 1560 1561 1563 1565 1567 1569 1570 1572 1573 1575 1576 1577 1578 1579 1581 1582
1497 1497 1494 1492 1486 1485 1489 1495 1492 1492 1494 1497 1500 1504 1508 1513 1519 1522 1526 1528 1530 1532 1533 1536 1537 1540 1542 1545 1547 1549 1552 1554 1556 1557 1559 1561 1562 1564 1566 1568 1570 1572 1573 1574 1576 1577 1578 1579 1580
1500 1489 1490 1492 1497 1498 1491 1507 1495 1490 1492 1494 1498 1502 1506 1510 1515 1519 1523 1526 1528 1530 1532 1534 1536 1538 1541 1543 1545 1547 1548 1550 1552 1554 1556 1558 1559 1561 1564 1566 1567 1569 1571 1572 1573 1574 1576 1577 1578
1493 1487 1490 1492 1497 1501 1492 1500 1497 1487 1492 1492 1494 1498 1503 1508 1512 1516 1520 1524 1527 1529 1531 1533 1535 1536 1538 1540 1542 1544 1546 1548 1550 1551 1553 1555 1556 1558 1561 1563 1565 1566 1568 1570 1571 1572 1573 1575 1576
1489 1492 1494 1494 1497 1512 1497 1501 1503 1490 1489 1489 1492 1497 1502 1507 1511 1516 1519 1523 1525 1528 1530 1532 1533 1534 1536 1538 1540 1542 1543 1545 1547 1548 1550 1552 1554 1555 1558 1559 1561 1563 1564 1566 1568 1569 1570 1572 1573
1493 1504 1516 1517 1515 1513 1492 1496 1495 1483 1483 1487 1491 1496 1501 1506 1510 1514 1518 1521 1524 1526 1529 1530 1531 1533 1534 1536 1538 1540 1541 1543 1544 1545 1547 1549 1550 1552 1554 1556 1558 1560 1561 1563 1565 1566 1567 1569 1570
1494 1499 1517 1525 1518 1510 1497 1496 1486 1477 1482 1487 1490 1495 1500 1505 1508 1513 1516 1520 1523 1525 1527 1529 1530 1532 1533 1535 1536 1537 1539 1540 1541 1543 1544 1546 1547 1549 1551 1553 1555 1556 1558 1560 1561 1563 1564 1565 1566
1491 1494 1489 1499 1501 1506 1496 1486 1480 1477 1482 1486 1489 1494 1498 1503 1507 1512 1515 1518 1521 1524 1526 1528 1529 1530 1532 1533 1534 1535 1537 1538 1539 1540 1541 1543 1544 1546 1548 1549 1551 1553 1555 1556 1558 1559 1560 1562 1563
1484 1485 1491 1501 1515 1520 1503 1494 1492 1486 1485 1486 1489 1493 1498 1502 1507 1510 1514 1517 1520 1523 1525 1526 1527 1529 1530 1531 1533 1534 1535 1535 1536 1537 1538 1540 1542 1543 1545 1546 1548 1550 1551 1553 1554 1555 1557 1558 1559
1487 1491 1492 1494 1496 1512 1517 1509 1481 1483 1483 1485 1488 1492 1497 1501 1505 1509 1512 1517 1520 1522 1523 1525 1526 1528 1529 1530 1531 1532 1533 1534 1535 1535 1536 1538 1539 1541 1542 1544 1545 1547 1548 1550 1551 1552 1553 1554 1555
1477 1483 1489 1505 1505 1499 1505 1501 1474 1476 1479 1483 1486 1491 1495 1500 1503 1508 1512 1516 1519 1521 1523 1524 1525 1527 1528 1528 1529 1530 1532 1532 1533 1534 1534 1536 1537 1538 1540 1541 1543 1544 1545 1547 1548 1548 1550 1551 1552